CANX-5

Last updated on Wed Nov 05 2025 00:03:48 GMT+0000 (Coordinated Universal Time)

1 40056U 14034D 25308.57422886 .00001405 00000+0 19017-3 0 9997 2 40056 98.3403 170.3107 0013424 18.4400 341.7295 14.80637516602093
UTC large
Height (km)
Speed (km/s)
/
Latitude / Longitude
Inclination (degrees)
Orbital Period (minutes)
Azimuth
Elevation
Range (km)
Doppler Factor

Next 0 passes for location: London (51.5072 / 0.1276)

Sorry there are no passes over London.